Time,TemperatureF,DewpointF,PressureIn,WindDirection,WindDirectionDegrees,WindSpeedMPH,WindSpeedGustMPH,Humidity,HourlyPrecipIn,Conditions,Clouds,dailyrainin,SoftwareType,DateUTC
2014-01-03 00:53:00,37.0,23.0,29.81,North,349,4.0,11.0,55,-99.99,,,-99.99,,2014-01-03 05:53:00,
2014-01-03 01:12:00,36.0,21.0,29.83,SSW,205,5.0,13.0,54,-99.99,,,-99.99,,2014-01-03 06:12:00,
2014-01-03 01:53:00,33.0,18.0,29.87,NE,55,4.0,20.0,52,-99.99,,,-99.99,,2014-01-03 06:53:00,
2014-01-03 02:12:00,33.0,17.0,29.89,WNW,288,5.0,15.0,51,-99.99,,,-99.99,,2014-01-03 07:12:00,
2014-01-03 02:52:00,31.0,16.0,-100.00,WNW,286,5.0,10.0,53,-99.99,,,-99.99,,2014-01-03 07:52:00,
2014-01-03 03:52:00,29.0,15.0,-100.00,South,182,3.0,7.0,55,-99.99,,,-99.99,,2014-01-03 08:52:00,
2014-01-03 04:11:00,29.0,13.0,-100.00,South,180,4.0,11.0,51,-99.99,,,-99.99,,2014-01-03 09:11:00,
2014-01-03 04:53:00,27.0,11.0,-100.00,NNW,339,4.0,14.0,51,-99.99,,,-99.99,,2014-01-03 09:53:00,
2014-01-03 05:52:00,25.0,10.0,-100.00,WSW,245,3.0,13.0,50,-99.99,,,-99.99,,2014-01-03 10:52:00,
2014-01-03 06:12:00,25.0,7.0,-100.00,NNE,17,5.0,15.0,45,-99.99,,,-99.99,,2014-01-03 11:12:00,
2014-01-03 06:53:00,24.0,6.0,-100.00,NNW,340,3.0,12.0,44,-99.99,,,-99.99,,2014-01-03 11:53:00,
2014-01-03 07:52:00,23.0,4.0,-100.00,SE,144,3.0,11.0,43,-99.99,,,-99.99,,2014-01-03 12:52:00,
2014-01-03 08:52:00,23.0,5.0,-100.00,East,82,2.0,6.0,45,-99.99,,,-99.99,,2014-01-03 13:52:00,
2014-01-03 09:11:00,25.0,6.0,-100.00,NE,45,2.0,12.0,44,-99.99,,,-99.99,,2014-01-03 14:11:00,
2014-01-03 09:52:00,27.0,6.0,-100.00,ENE,74,3.0,9.0,40,-99.99,,,-99.99,,2014-01-03 14:52:00,
2014-01-03 10:11:00,27.0,5.0,-100.00,East,86,3.0,8.0,39,-99.99,,,-99.99,,2014-01-03 15:11:00,
2014-01-03 10:53:00,29.0,7.0,-100.00,North,11,3.0,7.0,39,-99.99,,,-99.99,,2014-01-03 15:53:00,
2014-01-03 11:13:00,30.0,7.0,30.33,ENE,61,3.0,8.0,36,-99.99,,,-99.99,,2014-01-03 16:13:00,
2014-01-03 11:52:00,31.0,7.0,-100.00,ENE,71,3.0,9.0,35,-99.99,,,-99.99,,2014-01-03 16:52:00,
2014-01-03 12:12:00,32.0,7.0,30.35,NE,36,3.0,9.0,34,-99.99,,,-99.99,,2014-01-03 17:12:00,
2014-01-03 12:53:00,35.0,9.0,-100.00,NNE,17,3.0,8.0,33,-99.99,,,-99.99,,2014-01-03 17:53:00,
2014-01-03 13:12:00,35.0,8.0,30.35,ESE,115,4.0,11.0,31,-99.99,,,-99.99,,2014-01-03 18:12:00,
2014-01-03 13:52:00,35.0,7.0,-100.00,North,5,3.0,7.0,30,-99.99,,,-99.99,,2014-01-03 18:52:00,
2014-01-03 14:02:00,35.0,7.0,-100.00,North,5,3.0,7.0,30,-99.99,,,-99.99,,2014-01-03 19:02:00,
2014-01-03 14:23:00,36.0,7.0,30.34,South,184,2.0,6.0,29,-99.99,,,-99.99,,2014-01-03 19:23:00,
2014-01-03 14:52:00,37.0,7.0,-100.00,NE,54,3.0,9.0,28,-99.99,,,-99.99,,2014-01-03 19:52:00,
2014-01-03 15:12:00,37.0,7.0,30.34,ENE,57,3.0,10.0,28,-99.99,,,-99.99,,2014-01-03 20:12:00,
2014-01-03 15:52:00,37.0,7.0,30.34,SW,225,2.0,6.0,27,-99.99,,,-99.99,,2014-01-03 20:52:00,
2014-01-03 16:53:00,36.0,6.0,30.36,SW,219,2.0,5.0,27,-99.99,,,-99.99,,2014-01-03 21:53:00,
2014-01-03 17:53:00,32.0,6.0,30.38,SE,146,1.0,4.0,32,-99.99,,,-99.99,,2014-01-03 22:53:00,
2014-01-03 18:02:00,32.0,6.0,30.38,SE,146,1.0,4.0,32,-99.99,,,-99.99,,2014-01-03 23:02:00,
2014-01-03 18:22:00,30.0,8.0,30.39,North,353,1.0,2.0,37,-99.99,,,-99.99,,2014-01-03 23:22:00,
2014-01-03 18:52:00,27.0,9.0,30.41,East,87,1.0,2.0,46,-99.99,,,-99.99,,2014-01-03 23:52:00,
2014-01-03 19:12:00,26.0,9.0,-100.00,North,3,1.0,1.0,48,-99.99,,,-99.99,,2014-01-04 00:12:00,
2014-01-03 19:22:00,26.0,9.0,30.42,North,3,1.0,1.0,48,-99.99,,,-99.99,,2014-01-04 00:22:00,
2014-01-03 19:32:00,26.0,9.0,30.42,North,3,1.0,1.0,48,-99.99,,,-99.99,,2014-01-04 00:32:00,
2014-01-03 19:52:00,25.0,12.0,30.43,WNW,287,1.0,1.0,57,-99.99,,,-99.99,,2014-01-04 00:52:00,
2014-01-03 20:12:00,24.0,12.0,30.43,North,4,1.0,2.0,57,-99.99,,,-99.99,,2014-01-04 01:12:00,
2014-01-03 20:52:00,23.0,14.0,30.43,ENE,57,0.0,1.0,67,-99.99,,,-99.99,,2014-01-04 01:52:00,
2014-01-03 21:11:00,22.0,14.0,30.44,NNW,336,1.0,1.0,70,-99.99,,,-99.99,,2014-01-04 02:11:00,
2014-01-03 21:52:00,21.0,14.0,30.45,SW,225,1.0,1.0,74,-99.99,,,-99.99,,2014-01-04 02:52:00,
2014-01-03 22:11:00,20.0,15.0,30.45,ESE,121,0.0,1.0,79,-99.99,,,-99.99,,2014-01-04 03:11:00,
2014-01-03 22:54:00,19.0,15.0,30.46,North,351,0.0,1.0,84,-99.99,,,-99.99,,2014-01-04 03:54:00,
2014-01-03 23:52:00,18.0,15.0,30.48,West,281,0.0,1.0,86,-99.99,,,-99.99,,2014-01-04 04:52:00,